owner,sensor,date,latitude,longitude,relative_humidity,qcFlag 
DISL,ioos:station:DISL:MBLA:1,2012-07-01T00:00:00Z,30.4367,-88.0117,62.89,1111122 
DISL,ioos:station:DISL:MBLA:1,2012-07-01T00:30:00Z,30.4367,-88.0117,65.4,1111122 
DISL,ioos:station:DISL:MBLA:1,2012-07-01T01:00:00Z,30.4367,-88.0117,60.39,1111122 
DISL,ioos:station:DISL:MBLA:1,2012-07-01T01:30:00Z,30.4367,-88.0117,63.71,1111122 
DISL,ioos:station:DISL:MBLA:1,2012-07-01T02:00:00Z,30.4367,-88.0117,64.77,1111122 
DISL,ioos:station:DISL:MBLA:1,2012-07-01T02:30:00Z,30.4367,-88.0117,65.08,1111122 
DISL,ioos:station:DISL:MBLA:1,2012-07-01T03:00:00Z,30.4367,-88.0117,72.56,1111122 
DISL,ioos:station:DISL:MBLA:1,2012-07-01T03:30:00Z,30.4367,-88.0117,74.76,1111122 
DISL,ioos:station:DISL:MBLA:1,2012-07-01T04:00:00Z,30.4367,-88.0117,74.56,1111122 
DISL,ioos:station:DISL:MBLA:1,2012-07-01T04:30:00Z,30.4367,-88.0117,76.28,1111122 
DISL,ioos:station:DISL:MBLA:1,2012-07-01T05:00:00Z,30.4367,-88.0117,77.4,1111122 
DISL,ioos:station:DISL:MBLA:1,2012-07-01T05:30:00Z,30.4367,-88.0117,76.89,1111122 
DISL,ioos:station:DISL:MBLA:1,2012-07-01T06:00:00Z,30.4367,-88.0117,80.4,1111122 
DISL,ioos:station:DISL:MBLA:1,2012-07-01T06:30:00Z,30.4367,-88.0117,79.8,1111122 
DISL,ioos:station:DISL:MBLA:1,2012-07-01T07:00:00Z,30.4367,-88.0117,81.4,1111122 
DISL,ioos:station:DISL:MBLA:1,2012-07-01T07:30:00Z,30.4367,-88.0117,82.7,1111122 
DISL,ioos:station:DISL:MBLA:1,2012-07-01T08:00:00Z,30.4367,-88.0117,82.6,1111122 
DISL,ioos:station:DISL:MBLA:1,2012-07-01T08:30:00Z,30.4367,-88.0117,83.3,1111122 
DISL,ioos:station:DISL:MBLA:1,2012-07-01T09:00:00Z,30.4367,-88.0117,83.4,1111122 
DISL,ioos:station:DISL:MBLA:1,2012-07-01T09:30:00Z,30.4367,-88.0117,78.92,1111122 
DISL,ioos:station:DISL:MBLA:1,2012-07-01T10:00:00Z,30.4367,-88.0117,78.72,1111122 
DISL,ioos:station:DISL:MBLA:1,2012-07-01T10:30:00Z,30.4367,-88.0117,80.0,1111122 
DISL,ioos:station:DISL:MBLA:1,2012-07-01T11:00:00Z,30.4367,-88.0117,81.0,1111122 
DISL,ioos:station:DISL:MBLA:1,2012-07-01T11:30:00Z,30.4367,-88.0117,80.6,1111122 
DISL,ioos:station:DISL:MBLA:1,2012-07-01T12:00:00Z,30.4367,-88.0117,83.5,1111122 
DISL,ioos:station:DISL:MBLA:1,2012-07-01T12:30:00Z,30.4367,-88.0117,79.7,1111122 
DISL,ioos:station:DISL:MBLA:1,2012-07-01T13:00:00Z,30.4367,-88.0117,74.86,1111122 
DISL,ioos:station:DISL:MBLA:1,2012-07-01T13:30:00Z,30.4367,-88.0117,75.27,1111122 
DISL,ioos:station:DISL:MBLA:1,2012-07-01T14:00:00Z,30.4367,-88.0117,72.86,1111122 
DISL,ioos:station:DISL:MBLA:1,2012-07-01T14:30:00Z,30.4367,-88.0117,69.23,1111122 
DISL,ioos:station:DISL:MBLA:1,2012-07-01T15:00:00Z,30.4367,-88.0117,68.71,1111122 
DISL,ioos:station:DISL:MBLA:1,2012-07-01T15:30:00Z,30.4367,-88.0117,64.31,1111122 
DISL,ioos:station:DISL:MBLA:1,2012-07-01T16:00:00Z,30.4367,-88.0117,60.28,1111122 
DISL,ioos:station:DISL:MBLA:1,2012-07-01T16:30:00Z,30.4367,-88.0117,59.2,1111122 
DISL,ioos:station:DISL:MBLA:1,2012-07-01T17:00:00Z,30.4367,-88.0117,56.52,1111122 
DISL,ioos:station:DISL:MBLA:1,2012-07-01T17:30:00Z,30.4367,-88.0117,62.58,1111122 
DISL,ioos:station:DISL:MBLA:1,2012-07-01T18:00:00Z,30.4367,-88.0117,65.49,1111122 
DISL,ioos:station:DISL:MBLA:1,2012-07-01T18:30:00Z,30.4367,-88.0117,69.49,1111122 
DISL,ioos:station:DISL:MBLA:1,2012-07-01T19:00:00Z,30.4367,-88.0117,63.87,1111122 
DISL,ioos:station:DISL:MBLA:1,2012-07-01T19:30:00Z,30.4367,-88.0117,67.56,1111122 
DISL,ioos:station:DISL:MBLA:1,2012-07-01T20:00:00Z,30.4367,-88.0117,62.24,1111122 
DISL,ioos:station:DISL:MBLA:1,2012-07-01T20:30:00Z,30.4367,-88.0117,62.28,1111122 
DISL,ioos:station:DISL:MBLA:1,2012-07-01T21:00:00Z,30.4367,-88.0117,66.34,1111122 
DISL,ioos:station:DISL:MBLA:1,2012-07-01T21:30:00Z,30.4367,-88.0117,67.32,1111122 
DISL,ioos:station:DISL:MBLA:1,2012-07-01T22:00:00Z,30.4367,-88.0117,67.12,1111122 
DISL,ioos:station:DISL:MBLA:1,2012-07-01T22:30:00Z,30.4367,-88.0117,71.82,1111122 
DISL,ioos:station:DISL:MBLA:1,2012-07-01T23:00:00Z,30.4367,-88.0117,71.82,1111122 
DISL,ioos:station:DISL:MBLA:1,2012-07-01T23:30:00Z,30.4367,-88.0117,71.55,1111122 
DISL,ioos:station:DISL:MBLA:1,2012-07-02T00:00:00Z,30.4367,-88.0117,70.71,1111122 
DISL,ioos:station:DISL:MBLA:1,2012-07-02T00:30:00Z,30.4367,-88.0117,72.81,1111122 
DISL,ioos:station:DISL:MBLA:1,2012-07-02T01:00:00Z,30.4367,-88.0117,75.25,1111122 
DISL,ioos:station:DISL:MBLA:1,2012-07-02T01:30:00Z,30.4367,-88.0117,76.67,1111122 
DISL,ioos:station:DISL:MBLA:1,2012-07-02T02:00:00Z,30.4367,-88.0117,73.63,1111122 
DISL,ioos:station:DISL:MBLA:1,2012-07-02T02:30:00Z,30.4367,-88.0117,74.75,1111122 
DISL,ioos:station:DISL:MBLA:1,2012-07-02T03:00:00Z,30.4367,-88.0117,75.22,1111122 
DISL,ioos:station:DISL:MBLA:1,2012-07-02T03:30:00Z,30.4367,-88.0117,74.78,1111122 
DISL,ioos:station:DISL:MBLA:1,2012-07-02T04:00:00Z,30.4367,-88.0117,74.78,1111122 
DISL,ioos:station:DISL:MBLA:1,2012-07-02T04:30:00Z,30.4367,-88.0117,76.34,1111122 
DISL,ioos:station:DISL:MBLA:1,2012-07-02T05:00:00Z,30.4367,-88.0117,75.67,1111122 
DISL,ioos:station:DISL:MBLA:1,2012-07-02T05:30:00Z,30.4367,-88.0117,77.93,1111122 
DISL,ioos:station:DISL:MBLA:1,2012-07-02T06:00:00Z,30.4367,-88.0117,80.1,1111122 
DISL,ioos:station:DISL:MBLA:1,2012-07-02T06:30:00Z,30.4367,-88.0117,80.3,1111122 
DISL,ioos:station:DISL:MBLA:1,2012-07-02T07:00:00Z,30.4367,-88.0117,80.8,1111122 
DISL,ioos:station:DISL:MBLA:1,2012-07-02T07:30:00Z,30.4367,-88.0117,80.5,1111122 
DISL,ioos:station:DISL:MBLA:1,2012-07-02T08:00:00Z,30.4367,-88.0117,78.58,1111122 
DISL,ioos:station:DISL:MBLA:1,2012-07-02T08:30:00Z,30.4367,-88.0117,78.96,1111122 
DISL,ioos:station:DISL:MBLA:1,2012-07-02T09:00:00Z,30.4367,-88.0117,80.4,1111122 
DISL,ioos:station:DISL:MBLA:1,2012-07-02T09:30:00Z,30.4367,-88.0117,75.74,1111122 
DISL,ioos:station:DISL:MBLA:1,2012-07-02T10:00:00Z,30.4367,-88.0117,71.31,1111122 
DISL,ioos:station:DISL:MBLA:1,2012-07-02T10:30:00Z,30.4367,-88.0117,71.24,1111122 
DISL,ioos:station:DISL:MBLA:1,2012-07-02T11:00:00Z,30.4367,-88.0117,73.0,1111122 
DISL,ioos:station:DISL:MBLA:1,2012-07-02T11:30:00Z,30.4367,-88.0117,73.74,1111122 
DISL,ioos:station:DISL:MBLA:1,2012-07-02T12:00:00Z,30.4367,-88.0117,73.03,1111122 
DISL,ioos:station:DISL:MBLA:1,2012-07-02T12:30:00Z,30.4367,-88.0117,80.3,1111122 
DISL,ioos:station:DISL:MBLA:1,2012-07-02T13:00:00Z,30.4367,-88.0117,78.14,1111122 
DISL,ioos:station:DISL:MBLA:1,2012-07-02T13:30:00Z,30.4367,-88.0117,75.98,1111122 
DISL,ioos:station:DISL:MBLA:1,2012-07-02T14:00:00Z,30.4367,-88.0117,73.34,1111122 
DISL,ioos:station:DISL:MBLA:1,2012-07-02T14:30:00Z,30.4367,-88.0117,70.19,1111122 
DISL,ioos:station:DISL:MBLA:1,2012-07-02T15:00:00Z,30.4367,-88.0117,75.13,1111122 
DISL,ioos:station:DISL:MBLA:1,2012-07-02T15:30:00Z,30.4367,-88.0117,74.61,1111122 
DISL,ioos:station:DISL:MBLA:1,2012-07-02T16:00:00Z,30.4367,-88.0117,73.3,1111122 
DISL,ioos:station:DISL:MBLA:1,2012-07-02T16:30:00Z,30.4367,-88.0117,71.22,1111122 
DISL,ioos:station:DISL:MBLA:1,2012-07-02T17:00:00Z,30.4367,-88.0117,69.05,1111122 
DISL,ioos:station:DISL:MBLA:1,2012-07-02T17:30:00Z,30.4367,-88.0117,69.19,1111122 
DISL,ioos:station:DISL:MBLA:1,2012-07-02T18:00:00Z,30.4367,-88.0117,66.68,1111122 
DISL,ioos:station:DISL:MBLA:1,2012-07-02T18:30:00Z,30.4367,-88.0117,70.77,1111122 
DISL,ioos:station:DISL:MBLA:1,2012-07-02T19:00:00Z,30.4367,-88.0117,70.47,1111122 
DISL,ioos:station:DISL:MBLA:1,2012-07-02T19:30:00Z,30.4367,-88.0117,68.47,1111122 
DISL,ioos:station:DISL:MBLA:1,2012-07-02T20:00:00Z,30.4367,-88.0117,66.51,1111122 
DISL,ioos:station:DISL:MBLA:1,2012-07-02T20:30:00Z,30.4367,-88.0117,67.72,1111122 
DISL,ioos:station:DISL:MBLA:1,2012-07-02T21:00:00Z,30.4367,-88.0117,65.96,1111122 
DISL,ioos:station:DISL:MBLA:1,2012-07-02T21:30:00Z,30.4367,-88.0117,74.7,1111122 
DISL,ioos:station:DISL:MBLA:1,2012-07-02T22:00:00Z,30.4367,-88.0117,67.88,1111122 
DISL,ioos:station:DISL:MBLA:1,2012-07-02T22:30:00Z,30.4367,-88.0117,73.48,1111122 
DISL,ioos:station:DISL:MBLA:1,2012-07-02T23:00:00Z,30.4367,-88.0117,72.87,1111122 
DISL,ioos:station:DISL:MBLA:1,2012-07-02T23:30:00Z,30.4367,-88.0117,61.25,1111122 
DISL,ioos:station:DISL:MBLA:1,2012-07-03T00:00:00Z,30.4367,-88.0117,71.24,1111122 
DISL,ioos:station:DISL:MBLA:1,2012-07-03T00:30:00Z,30.4367,-88.0117,71.71,1111122 
DISL,ioos:station:DISL:MBLA:1,2012-07-03T01:00:00Z,30.4367,-88.0117,72.29,1111122 
DISL,ioos:station:DISL:MBLA:1,2012-07-03T01:30:00Z,30.4367,-88.0117,68.87,1111122 
DISL,ioos:station:DISL:MBLA:1,2012-07-03T02:00:00Z,30.4367,-88.0117,56.41,1111122 
DISL,ioos:station:DISL:MBLA:1,2012-07-03T02:30:00Z,30.4367,-88.0117,77.33,1111122 
DISL,ioos:station:DISL:MBLA:1,2012-07-03T03:00:00Z,30.4367,-88.0117,76.42,1111122 
DISL,ioos:station:DISL:MBLA:1,2012-07-03T03:30:00Z,30.4367,-88.0117,77.91,1111122 
DISL,ioos:station:DISL:MBLA:1,2012-07-03T04:00:00Z,30.4367,-88.0117,71.44,1111122 
DISL,ioos:station:DISL:MBLA:1,2012-07-03T04:30:00Z,30.4367,-88.0117,80.2,1111122 
DISL,ioos:station:DISL:MBLA:1,2012-07-03T05:00:00Z,30.4367,-88.0117,80.8,1111122 
DISL,ioos:station:DISL:MBLA:1,2012-07-03T05:30:00Z,30.4367,-88.0117,80.7,1111122 
DISL,ioos:station:DISL:MBLA:1,2012-07-03T06:00:00Z,30.4367,-88.0117,80.8,1111122 
DISL,ioos:station:DISL:MBLA:1,2012-07-03T06:30:00Z,30.4367,-88.0117,80.5,1111122 
DISL,ioos:station:DISL:MBLA:1,2012-07-03T07:00:00Z,30.4367,-88.0117,80.6,1111122 
DISL,ioos:station:DISL:MBLA:1,2012-07-03T07:30:00Z,30.4367,-88.0117,78.89,1111122 
DISL,ioos:station:DISL:MBLA:1,2012-07-03T08:00:00Z,30.4367,-88.0117,77.87,1111122 
DISL,ioos:station:DISL:MBLA:1,2012-07-03T08:30:00Z,30.4367,-88.0117,78.92,1111122 
DISL,ioos:station:DISL:MBLA:1,2012-07-03T09:00:00Z,30.4367,-88.0117,78.75,1111122 
DISL,ioos:station:DISL:MBLA:1,2012-07-03T09:30:00Z,30.4367,-88.0117,78.79,1111122 
DISL,ioos:station:DISL:MBLA:1,2012-07-03T10:00:00Z,30.4367,-88.0117,79.91,1111122 
DISL,ioos:station:DISL:MBLA:1,2012-07-03T10:30:00Z,30.4367,-88.0117,80.4,1111122 
DISL,ioos:station:DISL:MBLA:1,2012-07-03T11:00:00Z,30.4367,-88.0117,82.6,1111122 
DISL,ioos:station:DISL:MBLA:1,2012-07-03T11:30:00Z,30.4367,-88.0117,81.6,1111122 
DISL,ioos:station:DISL:MBLA:1,2012-07-03T12:00:00Z,30.4367,-88.0117,77.23,1111122 
DISL,ioos:station:DISL:MBLA:1,2012-07-03T12:30:00Z,30.4367,-88.0117,71.31,1111122 
DISL,ioos:station:DISL:MBLA:1,2012-07-03T13:00:00Z,30.4367,-88.0117,69.21,1111122 
DISL,ioos:station:DISL:MBLA:1,2012-07-03T13:30:00Z,30.4367,-88.0117,67.34,1111122 
DISL,ioos:station:DISL:MBLA:1,2012-07-03T14:00:00Z,30.4367,-88.0117,66.01,1111122 
DISL,ioos:station:DISL:MBLA:1,2012-07-03T14:30:00Z,30.4367,-88.0117,63.6,1111122 
DISL,ioos:station:DISL:MBLA:1,2012-07-03T15:00:00Z,30.4367,-88.0117,62.58,1111122 
DISL,ioos:station:DISL:MBLA:1,2012-07-03T15:30:00Z,30.4367,-88.0117,60.04,1111122 
DISL,ioos:station:DISL:MBLA:1,2012-07-03T16:00:00Z,30.4367,-88.0117,60.42,1111122 
DISL,ioos:station:DISL:MBLA:1,2012-07-03T16:30:00Z,30.4367,-88.0117,58.66,1111122 
DISL,ioos:station:DISL:MBLA:1,2012-07-03T17:00:00Z,30.4367,-88.0117,64.07,1111122 
DISL,ioos:station:DISL:MBLA:1,2012-07-03T17:30:00Z,30.4367,-88.0117,56.66,1111122 
DISL,ioos:station:DISL:MBLA:1,2012-07-03T18:00:00Z,30.4367,-88.0117,59.19,1111122 
DISL,ioos:station:DISL:MBLA:1,2012-07-03T18:30:00Z,30.4367,-88.0117,56.28,1111122 
DISL,ioos:station:DISL:MBLA:1,2012-07-03T19:00:00Z,30.4367,-88.0117,56.51,1111122 
DISL,ioos:station:DISL:MBLA:1,2012-07-03T19:30:00Z,30.4367,-88.0117,56.34,1111122 
DISL,ioos:station:DISL:MBLA:1,2012-07-03T20:00:00Z,30.4367,-88.0117,60.6,1111122 
DISL,ioos:station:DISL:MBLA:1,2012-07-03T20:30:00Z,30.4367,-88.0117,66.46,1111122 
DISL,ioos:station:DISL:MBLA:1,2012-07-03T21:00:00Z,30.4367,-88.0117,66.64,1111122 
DISL,ioos:station:DISL:MBLA:1,2012-07-03T21:30:00Z,30.4367,-88.0117,67.73,1111122 
DISL,ioos:station:DISL:MBLA:1,2012-07-03T22:00:00Z,30.4367,-88.0117,70.13,1111122 
DISL,ioos:station:DISL:MBLA:1,2012-07-03T22:30:00Z,30.4367,-88.0117,63.58,1111122 
DISL,ioos:station:DISL:MBLA:1,2012-07-03T23:00:00Z,30.4367,-88.0117,72.46,1111122 
DISL,ioos:station:DISL:MBLA:1,2012-07-03T23:30:00Z,30.4367,-88.0117,66.4,1111122 
DISL,ioos:station:DISL:MBLA:1,2012-07-04T00:00:00Z,30.4367,-88.0117,71.91,1111122 
DISL,ioos:station:DISL:MBLA:1,2012-07-04T00:30:00Z,30.4367,-88.0117,74.56,1111122 
DISL,ioos:station:DISL:MBLA:1,2012-07-04T01:00:00Z,30.4367,-88.0117,70.76,1111122 
DISL,ioos:station:DISL:MBLA:1,2012-07-04T01:30:00Z,30.4367,-88.0117,74.28,1111122 
DISL,ioos:station:DISL:MBLA:1,2012-07-04T02:00:00Z,30.4367,-88.0117,79.3,1111122 
DISL,ioos:station:DISL:MBLA:1,2012-07-04T02:30:00Z,30.4367,-88.0117,79.3,1111122 
DISL,ioos:station:DISL:MBLA:1,2012-07-04T03:00:00Z,30.4367,-88.0117,78.25,1111122 
DISL,ioos:station:DISL:MBLA:1,2012-07-04T03:30:00Z,30.4367,-88.0117,78.42,1111122 
DISL,ioos:station:DISL:MBLA:1,2012-07-04T04:00:00Z,30.4367,-88.0117,74.15,1111122 
DISL,ioos:station:DISL:MBLA:1,2012-07-04T04:30:00Z,30.4367,-88.0117,72.87,1111122 
DISL,ioos:station:DISL:MBLA:1,2012-07-04T05:00:00Z,30.4367,-88.0117,77.48,1111122 
DISL,ioos:station:DISL:MBLA:1,2012-07-04T05:30:00Z,30.4367,-88.0117,76.74,1111122 
DISL,ioos:station:DISL:MBLA:1,2012-07-04T06:00:00Z,30.4367,-88.0117,77.96,1111122 
DISL,ioos:station:DISL:MBLA:1,2012-07-04T06:30:00Z,30.4367,-88.0117,79.93,1111122 
DISL,ioos:station:DISL:MBLA:1,2012-07-04T07:00:00Z,30.4367,-88.0117,80.3,1111122 
DISL,ioos:station:DISL:MBLA:1,2012-07-04T07:30:00Z,30.4367,-88.0117,81.3,1111122 
DISL,ioos:station:DISL:MBLA:1,2012-07-04T08:00:00Z,30.4367,-88.0117,82.9,1111122 
DISL,ioos:station:DISL:MBLA:1,2012-07-04T08:30:00Z,30.4367,-88.0117,83.9,1111122 
DISL,ioos:station:DISL:MBLA:1,2012-07-04T09:00:00Z,30.4367,-88.0117,84.2,1111122 
DISL,ioos:station:DISL:MBLA:1,2012-07-04T09:30:00Z,30.4367,-88.0117,84.3,1111122 
DISL,ioos:station:DISL:MBLA:1,2012-07-04T10:00:00Z,30.4367,-88.0117,84.8,1111122 
DISL,ioos:station:DISL:MBLA:1,2012-07-04T10:30:00Z,30.4367,-88.0117,84.7,1111122 
DISL,ioos:station:DISL:MBLA:1,2012-07-04T11:00:00Z,30.4367,-88.0117,85.3,1111122 
DISL,ioos:station:DISL:MBLA:1,2012-07-04T11:30:00Z,30.4367,-88.0117,85.6,1111122 
DISL,ioos:station:DISL:MBLA:1,2012-07-04T12:00:00Z,30.4367,-88.0117,83.3,1111122 
DISL,ioos:station:DISL:MBLA:1,2012-07-04T12:30:00Z,30.4367,-88.0117,81.9,1111122 
DISL,ioos:station:DISL:MBLA:1,2012-07-04T13:00:00Z,30.4367,-88.0117,79.84,1111122 
DISL,ioos:station:DISL:MBLA:1,2012-07-04T13:30:00Z,30.4367,-88.0117,83.0,1111122 
DISL,ioos:station:DISL:MBLA:1,2012-07-04T14:00:00Z,30.4367,-88.0117,82.8,1111122 
DISL,ioos:station:DISL:MBLA:1,2012-07-04T14:30:00Z,30.4367,-88.0117,80.7,1111122 
DISL,ioos:station:DISL:MBLA:1,2012-07-04T15:00:00Z,30.4367,-88.0117,81.5,1111122 
DISL,ioos:station:DISL:MBLA:1,2012-07-04T15:30:00Z,30.4367,-88.0117,80.0,1111122 
DISL,ioos:station:DISL:MBLA:1,2012-07-04T16:00:00Z,30.4367,-88.0117,79.14,1111122 
DISL,ioos:station:DISL:MBLA:1,2012-07-04T16:30:00Z,30.4367,-88.0117,77.92,1111122 
DISL,ioos:station:DISL:MBLA:1,2012-07-04T17:00:00Z,30.4367,-88.0117,53.55,1111122 
DISL,ioos:station:DISL:MBLA:1,2012-07-04T17:30:00Z,30.4367,-88.0117,69.15,1111122 
DISL,ioos:station:DISL:MBLA:1,2012-07-04T18:00:00Z,30.4367,-88.0117,75.42,1111122 
DISL,ioos:station:DISL:MBLA:1,2012-07-04T18:30:00Z,30.4367,-88.0117,72.01,1111122 
DISL,ioos:station:DISL:MBLA:1,2012-07-04T19:00:00Z,30.4367,-88.0117,71.98,1111122 
DISL,ioos:station:DISL:MBLA:1,2012-07-04T19:30:00Z,30.4367,-88.0117,74.59,1111122 
DISL,ioos:station:DISL:MBLA:1,2012-07-04T20:00:00Z,30.4367,-88.0117,75.4,1111122 
DISL,ioos:station:DISL:MBLA:1,2012-07-04T20:30:00Z,30.4367,-88.0117,76.25,1111122 
DISL,ioos:station:DISL:MBLA:1,2012-07-04T21:00:00Z,30.4367,-88.0117,77.13,1111122 
DISL,ioos:station:DISL:MBLA:1,2012-07-04T21:30:00Z,30.4367,-88.0117,77.54,1111122 
DISL,ioos:station:DISL:MBLA:1,2012-07-04T22:00:00Z,30.4367,-88.0117,73.54,1111122 
DISL,ioos:station:DISL:MBLA:1,2012-07-04T22:30:00Z,30.4367,-88.0117,74.05,1111122 
DISL,ioos:station:DISL:MBLA:1,2012-07-04T23:00:00Z,30.4367,-88.0117,75.17,1111122 
DISL,ioos:station:DISL:MBLA:1,2012-07-04T23:30:00Z,30.4367,-88.0117,72.22,1111122 
DISL,ioos:station:DISL:MBLA:1,2012-07-05T00:00:00Z,30.4367,-88.0117,65.48,1111122 
DISL,ioos:station:DISL:MBLA:1,2012-07-05T00:30:00Z,30.4367,-88.0117,69.24,1111122 
DISL,ioos:station:DISL:MBLA:1,2012-07-05T01:00:00Z,30.4367,-88.0117,73.95,1111122 
DISL,ioos:station:DISL:MBLA:1,2012-07-05T01:30:00Z,30.4367,-88.0117,76.45,1111122 
DISL,ioos:station:DISL:MBLA:1,2012-07-05T02:00:00Z,30.4367,-88.0117,77.4,1111122 
DISL,ioos:station:DISL:MBLA:1,2012-07-05T02:30:00Z,30.4367,-88.0117,76.83,1111122 
DISL,ioos:station:DISL:MBLA:1,2012-07-05T03:00:00Z,30.4367,-88.0117,76.72,1111122 
DISL,ioos:station:DISL:MBLA:1,2012-07-05T03:30:00Z,30.4367,-88.0117,76.56,1111122 
DISL,ioos:station:DISL:MBLA:1,2012-07-05T04:00:00Z,30.4367,-88.0117,76.42,1111122 
DISL,ioos:station:DISL:MBLA:1,2012-07-05T04:30:00Z,30.4367,-88.0117,77.43,1111122 
DISL,ioos:station:DISL:MBLA:1,2012-07-05T05:00:00Z,30.4367,-88.0117,79.26,1111122 
DISL,ioos:station:DISL:MBLA:1,2012-07-05T05:30:00Z,30.4367,-88.0117,79.2,1111122 
DISL,ioos:station:DISL:MBLA:1,2012-07-05T06:00:00Z,30.4367,-88.0117,80.5,1111122 
DISL,ioos:station:DISL:MBLA:1,2012-07-05T06:30:00Z,30.4367,-88.0117,83.1,1111122 
DISL,ioos:station:DISL:MBLA:1,2012-07-05T07:00:00Z,30.4367,-88.0117,81.6,1111122 
DISL,ioos:station:DISL:MBLA:1,2012-07-05T07:30:00Z,30.4367,-88.0117,70.26,1111122 
DISL,ioos:station:DISL:MBLA:1,2012-07-05T08:00:00Z,30.4367,-88.0117,69.24,1111122 
DISL,ioos:station:DISL:MBLA:1,2012-07-05T08:30:00Z,30.4367,-88.0117,69.75,1111122 
DISL,ioos:station:DISL:MBLA:1,2012-07-05T09:00:00Z,30.4367,-88.0117,71.17,1111122 
DISL,ioos:station:DISL:MBLA:1,2012-07-05T09:30:00Z,30.4367,-88.0117,72.52,1111122 
DISL,ioos:station:DISL:MBLA:1,2012-07-05T10:00:00Z,30.4367,-88.0117,79.19,1111122 
DISL,ioos:station:DISL:MBLA:1,2012-07-05T10:30:00Z,30.4367,-88.0117,79.77,1111122 
DISL,ioos:station:DISL:MBLA:1,2012-07-05T11:00:00Z,30.4367,-88.0117,79.8,1111122 
DISL,ioos:station:DISL:MBLA:1,2012-07-05T11:30:00Z,30.4367,-88.0117,80.2,1111122 
DISL,ioos:station:DISL:MBLA:1,2012-07-05T12:00:00Z,30.4367,-88.0117,76.18,1111122 
DISL,ioos:station:DISL:MBLA:1,2012-07-05T12:30:00Z,30.4367,-88.0117,71.54,1111122 
DISL,ioos:station:DISL:MBLA:1,2012-07-05T13:00:00Z,30.4367,-88.0117,68.53,1111122 
DISL,ioos:station:DISL:MBLA:1,2012-07-05T13:30:00Z,30.4367,-88.0117,70.04,1111122 
DISL,ioos:station:DISL:MBLA:1,2012-07-05T14:00:00Z,30.4367,-88.0117,71.22,1111122 
DISL,ioos:station:DISL:MBLA:1,2012-07-05T14:30:00Z,30.4367,-88.0117,72.34,1111122 
DISL,ioos:station:DISL:MBLA:1,2012-07-05T15:00:00Z,30.4367,-88.0117,68.48,1111122 
DISL,ioos:station:DISL:MBLA:1,2012-07-05T15:30:00Z,30.4367,-88.0117,65.56,1111122 
DISL,ioos:station:DISL:MBLA:1,2012-07-05T16:00:00Z,30.4367,-88.0117,62.69,1111122 
DISL,ioos:station:DISL:MBLA:1,2012-07-05T16:30:00Z,30.4367,-88.0117,63.09,1111122 
DISL,ioos:station:DISL:MBLA:1,2012-07-05T17:00:00Z,30.4367,-88.0117,62.07,1111122 
DISL,ioos:station:DISL:MBLA:1,2012-07-05T17:30:00Z,30.4367,-88.0117,62.18,1111122 
DISL,ioos:station:DISL:MBLA:1,2012-07-05T18:00:00Z,30.4367,-88.0117,66.75,1111122 
DISL,ioos:station:DISL:MBLA:1,2012-07-05T18:30:00Z,30.4367,-88.0117,68.0,1111122 
DISL,ioos:station:DISL:MBLA:1,2012-07-05T19:00:00Z,30.4367,-88.0117,67.15,1111122 
DISL,ioos:station:DISL:MBLA:1,2012-07-05T19:30:00Z,30.4367,-88.0117,68.98,1111122 
DISL,ioos:station:DISL:MBLA:1,2012-07-05T20:00:00Z,30.4367,-88.0117,65.39,1111122 
DISL,ioos:station:DISL:MBLA:1,2012-07-05T20:30:00Z,30.4367,-88.0117,68.4,1111122 
DISL,ioos:station:DISL:MBLA:1,2012-07-05T21:00:00Z,30.4367,-88.0117,69.79,1111122 
DISL,ioos:station:DISL:MBLA:1,2012-07-05T21:30:00Z,30.4367,-88.0117,68.34,1111122 
DISL,ioos:station:DISL:MBLA:1,2012-07-05T22:00:00Z,30.4367,-88.0117,68.23,1111122 
DISL,ioos:station:DISL:MBLA:1,2012-07-05T22:30:00Z,30.4367,-88.0117,67.42,1111122 
DISL,ioos:station:DISL:MBLA:1,2012-07-05T23:00:00Z,30.4367,-88.0117,66.51,1111122 
DISL,ioos:station:DISL:MBLA:1,2012-07-05T23:30:00Z,30.4367,-88.0117,68.03,1111122 
DISL,ioos:station:DISL:MBLA:1,2012-07-06T00:00:00Z,30.4367,-88.0117,66.37,1111122 
DISL,ioos:station:DISL:MBLA:1,2012-07-06T00:30:00Z,30.4367,-88.0117,67.63,1111122 
DISL,ioos:station:DISL:MBLA:1,2012-07-06T01:00:00Z,30.4367,-88.0117,69.05,1111122 
DISL,ioos:station:DISL:MBLA:1,2012-07-06T01:30:00Z,30.4367,-88.0117,70.17,1111122 
DISL,ioos:station:DISL:MBLA:1,2012-07-06T02:00:00Z,30.4367,-88.0117,72.61,1111122 
DISL,ioos:station:DISL:MBLA:1,2012-07-06T02:30:00Z,30.4367,-88.0117,71.12,1111122 
DISL,ioos:station:DISL:MBLA:1,2012-07-06T03:00:00Z,30.4367,-88.0117,74.0,1111122 
DISL,ioos:station:DISL:MBLA:1,2012-07-06T03:30:00Z,30.4367,-88.0117,75.19,1111122 
DISL,ioos:station:DISL:MBLA:1,2012-07-06T04:00:00Z,30.4367,-88.0117,74.44,1111122 
DISL,ioos:station:DISL:MBLA:1,2012-07-06T04:30:00Z,30.4367,-88.0117,76.58,1111122 
DISL,ioos:station:DISL:MBLA:1,2012-07-06T05:00:00Z,30.4367,-88.0117,76.55,1111122 
DISL,ioos:station:DISL:MBLA:1,2012-07-06T05:30:00Z,30.4367,-88.0117,79.12,1111122 
DISL,ioos:station:DISL:MBLA:1,2012-07-06T06:00:00Z,30.4367,-88.0117,76.42,1111122 
DISL,ioos:station:DISL:MBLA:1,2012-07-06T06:30:00Z,30.4367,-88.0117,75.43,1111122 
DISL,ioos:station:DISL:MBLA:1,2012-07-06T07:00:00Z,30.4367,-88.0117,74.35,1111122 
DISL,ioos:station:DISL:MBLA:1,2012-07-06T07:30:00Z,30.4367,-88.0117,75.84,1111122 
DISL,ioos:station:DISL:MBLA:1,2012-07-06T08:00:00Z,30.4367,-88.0117,80.3,1111122 
DISL,ioos:station:DISL:MBLA:1,2012-07-06T08:30:00Z,30.4367,-88.0117,79.83,1111122 
DISL,ioos:station:DISL:MBLA:1,2012-07-06T09:00:00Z,30.4367,-88.0117,70.56,1111122 
DISL,ioos:station:DISL:MBLA:1,2012-07-06T09:30:00Z,30.4367,-88.0117,75.5,1111122 
DISL,ioos:station:DISL:MBLA:1,2012-07-06T10:00:00Z,30.4367,-88.0117,81.3,1111122 
DISL,ioos:station:DISL:MBLA:1,2012-07-06T10:30:00Z,30.4367,-88.0117,83.6,1111122 
DISL,ioos:station:DISL:MBLA:1,2012-07-06T11:00:00Z,30.4367,-88.0117,84.2,1111122 
DISL,ioos:station:DISL:MBLA:1,2012-07-06T11:30:00Z,30.4367,-88.0117,84.8,1111122 
DISL,ioos:station:DISL:MBLA:1,2012-07-06T12:00:00Z,30.4367,-88.0117,80.7,1111122 
DISL,ioos:station:DISL:MBLA:1,2012-07-06T12:30:00Z,30.4367,-88.0117,80.9,1111122 
DISL,ioos:station:DISL:MBLA:1,2012-07-06T13:00:00Z,30.4367,-88.0117,79.09,1111122 
DISL,ioos:station:DISL:MBLA:1,2012-07-06T13:30:00Z,30.4367,-88.0117,81.2,1111122 
DISL,ioos:station:DISL:MBLA:1,2012-07-06T14:00:00Z,30.4367,-88.0117,88.0,1111122 
DISL,ioos:station:DISL:MBLA:1,2012-07-06T14:30:00Z,30.4367,-88.0117,84.2,1111122 
DISL,ioos:station:DISL:MBLA:1,2012-07-06T15:00:00Z,30.4367,-88.0117,78.68,1111122 
DISL,ioos:station:DISL:MBLA:1,2012-07-06T15:30:00Z,30.4367,-88.0117,69.97,1111122 
DISL,ioos:station:DISL:MBLA:1,2012-07-06T16:00:00Z,30.4367,-88.0117,74.8,1111122 
DISL,ioos:station:DISL:MBLA:1,2012-07-06T16:30:00Z,30.4367,-88.0117,77.75,1111122 
DISL,ioos:station:DISL:MBLA:1,2012-07-06T17:00:00Z,30.4367,-88.0117,79.01,1111122 
DISL,ioos:station:DISL:MBLA:1,2012-07-06T17:30:00Z,30.4367,-88.0117,80.3,1111122 
DISL,ioos:station:DISL:MBLA:1,2012-07-06T18:00:00Z,30.4367,-88.0117,84.7,1111122 
DISL,ioos:station:DISL:MBLA:1,2012-07-06T18:30:00Z,30.4367,-88.0117,81.3,1111122 
DISL,ioos:station:DISL:MBLA:1,2012-07-06T19:00:00Z,30.4367,-88.0117,77.39,1111122 
DISL,ioos:station:DISL:MBLA:1,2012-07-06T19:30:00Z,30.4367,-88.0117,77.35,1111122 
DISL,ioos:station:DISL:MBLA:1,2012-07-06T20:00:00Z,30.4367,-88.0117,76.32,1111122 
DISL,ioos:station:DISL:MBLA:1,2012-07-06T20:30:00Z,30.4367,-88.0117,69.88,1111122 
DISL,ioos:station:DISL:MBLA:1,2012-07-06T21:00:00Z,30.4367,-88.0117,73.39,1111122 
DISL,ioos:station:DISL:MBLA:1,2012-07-06T21:30:00Z,30.4367,-88.0117,71.97,1111122 
DISL,ioos:station:DISL:MBLA:1,2012-07-06T22:00:00Z,30.4367,-88.0117,74.03,1111122 
DISL,ioos:station:DISL:MBLA:1,2012-07-06T22:30:00Z,30.4367,-88.0117,75.04,1111122 
DISL,ioos:station:DISL:MBLA:1,2012-07-06T23:00:00Z,30.4367,-88.0117,77.31,1111122 
DISL,ioos:station:DISL:MBLA:1,2012-07-06T23:30:00Z,30.4367,-88.0117,76.71,1111122 
DISL,ioos:station:DISL:MBLA:1,2012-07-07T00:00:00Z,30.4367,-88.0117,76.41,1111122 